| time (UTC) | temp C | wind direction | speed KPH | gust KPH | rain 1hr cm | rain 24hr cm | rain mn cm | humidity % | barometer mb |
| 20260504130546 | 21 | 193 | 6.4 | 25.7 | 0.00 | 0.00 | 0.00 | 44 | 1015.7 |
| 20260504110544 | 20 | 240 | 6.4 | 19.3 | 0.00 | 0.00 | 0.00 | 48 | 1016.5 |
| 20260504100544 | 18 | 148 | 6.4 | 19.3 | 0.00 | 0.00 | 0.00 | 46 | 1017.2 |
| 20260504081555 | 16 | 269 | 4.8 | 16.1 | 0.00 | 0.00 | 0.00 | 51 | 1017.3 |
| 20260504081047 | 16 | 18 | 3.2 | 16.1 | 0.00 | 0.00 | 0.00 | 51 | 1017.2 |
| 20260504080545 | 16 | 240 | 8.0 | 16.1 | 0.00 | 0.00 | 0.00 | 51 | 1017.2 |
| 20260504050544 | 11 | 272 | 3.2 | 11.3 | 0.00 | 0.00 | 0.00 | 62 | 1017.1 |
| 20260504045543 | 11 | 310 | 3.2 | 6.4 | 0.00 | 0.00 | 0.00 | 62 | 1017.1 |
| 20260504045048 | 11 | 284 | 1.6 | 6.4 | 0.00 | 0.00 | 0.00 | 62 | 1017.1 |
| 20260504044556 | 11 | 286 | 3.2 | 6.4 | 0.00 | 0.00 | 0.00 | 62 | 1017.2 |
| 20260504044047 | 10 | 294 | 3.2 | 6.4 | 0.00 | 0.00 | 0.00 | 63 | 1017.1 |
| 20260504043547 | 10 | 292 | 1.6 | 6.4 | 0.00 | 0.00 | 0.00 | 64 | 1017.2 |
| 20260504043100 | 10 | 0 | 3.2 | 6.4 | 0.00 | 0.00 | 0.00 | 64 | 1017.1 |
| 20260504042545 | 10 | 313 | 1.6 | 6.4 | 0.00 | 0.00 | 0.00 | 64 | 1017.1 |
| 20260504042048 | 10 | 312 | 3.2 | 6.4 | 0.00 | 0.00 | 0.00 | 64 | 1017.2 |
| 20260504041552 | 9 | 300 | 3.2 | 6.4 | 0.00 | 0.00 | 0.00 | 65 | 1017.3 |
| 20260504041047 | 9 | 289 | 1.6 | 6.4 | 0.00 | 0.00 | 0.00 | 65 | 1017.2 |
| 20260504040544 | 8 | 277 | 1.6 | 8.0 | 0.00 | 0.00 | 0.00 | 66 | 1017.3 |
| 20260504040126 | 8 | 317 | 3.2 | 8.0 | 0.00 | 0.00 | 0.00 | 66 | 1017.3 |
| 20260504035547 | 8 | 311 | 1.6 | 6.4 | 0.00 | 0.00 | 0.00 | 66 | 1017.2 |
| 20260504035047 | 8 | 277 | 1.6 | 4.8 | 0.00 | 0.00 | 0.00 | 66 | 1017.2 |
| 20260504034550 | 8 | 290 | 1.6 | 8.0 | 0.00 | 0.00 | 0.00 | 65 | 1017.3 |
| 20260504034043 | 8 | 303 | 1.6 | 8.0 | 0.00 | 0.00 | 0.00 | 65 | 1017.4 |
| 20260504033545 | 8 | 292 | 1.6 | 6.4 | 0.00 | 0.00 | 0.00 | 65 | 1017.4 |
| 20260504033051 | 8 | 317 | 1.6 | 6.4 | 0.00 | 0.00 | 0.00 | 64 | 1017.4 |
| 20260504032547 | 8 | 309 | 1.6 | 4.8 | 0.00 | 0.00 | 0.00 | 64 | 1017.3 |
| 20260504032046 | 8 | 300 | 1.6 | 6.4 | 0.00 | 0.00 | 0.00 | 64 | 1017.2 |
| 20260504031556 | 8 | 293 | 1.6 | 6.4 | 0.00 | 0.00 | 0.00 | 63 | 1017.3 |
| 20260504031046 | 8 | 301 | 3.2 | 6.4 | 0.00 | 0.00 | 0.00 | 63 | 1017.3 |
| 20260504030545 | 8 | 298 | 3.2 | 6.4 | 0.00 | 0.00 | 0.00 | 63 | 1017.4 |
| 20260504030054 | 8 | 271 | 3.2 | 6.4 | 0.00 | 0.00 | 0.00 | 63 | 1017.4 |
| 20260504025545 | 8 | 275 | 3.2 | 9.7 | 0.00 | 0.00 | 0.00 | 63 | 1017.5 |
| 20260504025045 | 8 | 252 | 3.2 | 9.7 | 0.00 | 0.00 | 0.00 | 63 | 1017.4 |
| 20260504024551 | 8 | 286 | 3.2 | 9.7 | 0.00 | 0.00 | 0.00 | 63 | 1017.3 |
| 20260504024045 | 8 | 275 | 3.2 | 6.4 | 0.00 | 0.00 | 0.00 | 63 | 1017.3 |
| 20260504023545 | 8 | 288 | 3.2 | 4.8 | 0.00 | 0.00 | 0.00 | 63 | 1017.4 |
| 20260504023052 | 8 | 319 | 1.6 | 4.8 | 0.00 | 0.00 | 0.00 | 62 | 1017.3 |
| 20260504022544 | 8 | 319 | 1.6 | 4.8 | 0.00 | 0.00 | 0.00 | 62 | 1017.3 |
| 20260504022045 | 8 | 0 | 1.6 | 6.4 | 0.00 | 0.00 | 0.00 | 61 | 1017.4 |
| 20260504021552 | 8 | 0 | 3.2 | 6.4 | 0.00 | 0.00 | 0.00 | 61 | 1017.4 |
| 20260504021044 | 8 | 286 | 1.6 | 6.4 | 0.00 | 0.00 | 0.00 | 60 | 1017.5 |
| 20260504020544 | 8 | 310 | 1.6 | 6.4 | 0.00 | 0.00 | 0.00 | 59 | 1017.4 |
| 20260504020107 | 9 | 303 | 3.2 | 6.4 | 0.00 | 0.00 | 0.00 | 59 | 1017.4 |
| 20260504015548 | 9 | 296 | 1.6 | 6.4 | 0.00 | 0.00 | 0.00 | 58 | 1017.4 |
| 20260504015045 | 9 | 297 | 1.6 | 6.4 | 0.00 | 0.00 | 0.00 | 57 | 1017.4 |
| 20260504014552 | 10 | 296 | 3.2 | 6.4 | 0.00 | 0.00 | 0.00 | 56 | 1017.3 |
| 20260504014045 | 10 | 298 | 1.6 | 11.3 | 0.00 | 0.00 | 0.00 | 55 | 1017.3 |
| 20260504013547 | 10 | 296 | 3.2 | 11.3 | 0.00 | 0.00 | 0.00 | 54 | 1017.3 |
| 20260504013051 | 10 | 304 | 3.2 | 11.3 | 0.00 | 0.00 | 0.00 | 54 | 1017.2 |
| 20260504012549 | 10 | 266 | 3.2 | 6.4 | 0.00 | 0.00 | 0.00 | 53 | 1017.2 |
| 20260504012045 | 10 | 267 | 3.2 | 6.4 | 0.00 | 0.00 | 0.00 | 53 | 1017.2 |
| 20260504011549 | 10 | 290 | 3.2 | 11.3 | 0.00 | 0.00 | 0.00 | 52 | 1017.1 |
| 20260504011044 | 10 | 266 | 3.2 | 11.3 | 0.00 | 0.00 | 0.00 | 52 | 1017.2 |
| 20260504010545 | 10 | 267 | 4.8 | 11.3 | 0.00 | 0.00 | 0.00 | 52 | 1017.2 |
| 20260504010055 | 11 | 301 | 3.2 | 9.7 | 0.00 | 0.00 | 0.00 | 52 | 1017.1 |
| 20260504005546 | 11 | 277 | 3.2 | 11.3 | 0.00 | 0.00 | 0.00 | 51 | 1017.2 |
| 20260504005049 | 11 | 285 | 3.2 | 11.3 | 0.00 | 0.00 | 0.00 | 51 | 1017.3 |
| 20260504004549 | 11 | 272 | 3.2 | 11.3 | 0.00 | 0.00 | 0.00 | 51 | 1017.2 |
| 20260504004046 | 11 | 277 | 4.8 | 11.3 | 0.00 | 0.00 | 0.00 | 51 | 1017.1 |
| 20260504003546 | 11 | 286 | 3.2 | 9.7 | 0.00 | 0.00 | 0.00 | 50 | 1017.2 |
| 20260504003053 | 11 | 258 | 3.2 | 9.7 | 0.00 | 0.00 | 0.00 | 50 | 1017.2 |
| 20260504002543 | 11 | 251 | 3.2 | 9.7 | 0.00 | 0.00 | 0.00 | 50 | 1017.2 |
| 20260504002044 | 11 | 302 | 3.2 | 11.3 | 0.00 | 0.00 | 0.00 | 50 | 1017.2 |
| 20260504001554 | 11 | 305 | 4.8 | 16.1 | 0.00 | 0.00 | 0.00 | 50 | 1017.2 |
| 20260504001046 | 11 | 293 | 6.4 | 16.1 | 0.00 | 0.00 | 0.00 | 50 | 1017.2 |
| 20260504000544 | 11 | 254 | 6.4 | 14.5 | 0.00 | 0.00 | 0.00 | 50 | 1017.2 |
| 20260504000056 | 11 | 241 | 4.8 | 16.1 | 0.00 | 0.00 | 0.00 | 50 | 1017.3 |
| 20260503235545 | 11 | 281 | 4.8 | 16.1 | 0.00 | 0.00 | 0.00 | 50 | 1017.3 |
| 20260503235047 | 11 | 245 | 4.8 | 12.9 | 0.00 | 0.00 | 0.00 | 50 | 1017.3 |
| 20260503234622 | 11 | 238 | 4.8 | 12.9 | 0.00 | 0.00 | 0.00 | 50 | 1017.3 |
| 20260503234051 | 11 | 288 | 4.8 | 14.5 | 0.00 | 0.00 | 0.00 | 50 | 1017.4 |
| 20260503233547 | 11 | 268 | 6.4 | 14.5 | 0.00 | 0.00 | 0.00 | 49 | 1017.4 |
| 20260503233100 | 11 | 248 | 6.4 | 14.5 | 0.00 | 0.00 | 0.00 | 49 | 1017.4 |
| 20260503232543 | 11 | 256 | 6.4 | 12.9 | 0.00 | 0.00 | 0.00 | 49 | 1017.4 |
| 20260503232045 | 11 | 264 | 4.8 | 12.9 | 0.00 | 0.00 | 0.00 | 49 | 1017.5 |
| 20260503231558 | 12 | 252 | 4.8 | 14.5 | 0.00 | 0.00 | 0.00 | 48 | 1017.4 |
| 20260503231043 | 12 | 242 | 4.8 | 14.5 | 0.00 | 0.00 | 0.00 | 48 | 1017.4 |
| 20260503230546 | 12 | 319 | 4.8 | 12.9 | 0.00 | 0.00 | 0.00 | 48 | 1017.4 |
| 20260503230101 | 12 | 253 | 4.8 | 16.1 | 0.00 | 0.00 | 0.00 | 48 | 1017.5 |
| 20260503225544 | 12 | 281 | 4.8 | 16.1 | 0.00 | 0.00 | 0.00 | 48 | 1017.5 |
| 20260503225048 | 12 | 263 | 4.8 | 14.5 | 0.00 | 0.00 | 0.00 | 47 | 1017.5 |
| 20260503224557 | 12 | 277 | 6.4 | 14.5 | 0.00 | 0.00 | 0.00 | 47 | 1017.5 |
| 20260503224045 | 12 | 299 | 4.8 | 12.9 | 0.00 | 0.00 | 0.00 | 47 | 1017.5 |
| 20260503223544 | 12 | 242 | 4.8 | 14.5 | 0.00 | 0.00 | 0.00 | 47 | 1017.5 |
| 20260503223053 | 12 | 242 | 4.8 | 16.1 | 0.00 | 0.00 | 0.00 | 46 | 1017.6 |
| 20260503222548 | 12 | 249 | 6.4 | 16.1 | 0.00 | 0.00 | 0.00 | 46 | 1017.6 |
| 20260503222045 | 12 | 300 | 4.8 | 14.5 | 0.00 | 0.00 | 0.00 | 46 | 1017.6 |
| 20260503221601 | 12 | 264 | 6.4 | 14.5 | 0.00 | 0.00 | 0.00 | 45 | 1017.5 |
| 20260503221043 | 12 | 284 | 4.8 | 14.5 | 0.00 | 0.00 | 0.00 | 45 | 1017.5 |
| 20260503220544 | 12 | 167 | 4.8 | 12.9 | 0.00 | 0.00 | 0.00 | 46 | 1017.5 |
| 20260503220057 | 12 | 255 | 4.8 | 12.9 | 0.00 | 0.00 | 0.00 | 46 | 1017.7 |
| 20260503215543 | 12 | 303 | 3.2 | 12.9 | 0.00 | 0.00 | 0.00 | 46 | 1017.7 |
| 20260503215043 | 12 | 223 | 3.2 | 14.5 | 0.00 | 0.00 | 0.00 | 46 | 1017.6 |
| 20260503214557 | 12 | 290 | 3.2 | 14.5 | 0.00 | 0.00 | 0.00 | 46 | 1017.5 |
| 20260503214050 | 12 | 252 | 4.8 | 14.5 | 0.00 | 0.00 | 0.00 | 46 | 1017.7 |
| 20260503213544 | 12 | 254 | 1.6 | 6.4 | 0.00 | 0.00 | 0.00 | 47 | 1017.7 |
| 20260503213053 | 12 | 261 | 1.6 | 6.4 | 0.00 | 0.00 | 0.00 | 46 | 1017.8 |
| 20260503212544 | 12 | 258 | 1.6 | 6.4 | 0.00 | 0.00 | 0.00 | 47 | 1017.8 |
| 20260503212044 | 12 | 0 | 0.0 | 6.4 | 0.00 | 0.00 | 0.00 | 47 | 1017.7 |
| 20260503211552 | 12 | 282 | 0.0 | 4.8 | 0.00 | 0.00 | 0.00 | 47 | 1017.7 |
| 20260503211043 | 12 | 259 | 1.6 | 4.8 | 0.00 | 0.00 | 0.00 | 47 | 1017.7 |
| 20260503210544 | 12 | 272 | 1.6 | 9.7 | 0.00 | 0.00 | 0.00 | 46 | 1017.8 |
| 20260503210054 | 13 | 266 | 1.6 | 9.7 | 0.00 | 0.00 | 0.00 | 45 | 1017.8 |
| 20260503205545 | 13 | 250 | 3.2 | 9.7 | 0.00 | 0.00 | 0.00 | 45 | 1017.8 |
| 20260503205044 | 13 | 259 | 3.2 | 8.0 | 0.00 | 0.00 | 0.00 | 44 | 1017.8 |
| 20260503204555 | 13 | 249 | 1.6 | 6.4 | 0.00 | 0.00 | 0.00 | 44 | 1017.9 |
| 20260503204043 | 13 | 273 | 3.2 | 6.4 | 0.00 | 0.00 | 0.00 | 44 | 1018.0 |
| 20260503203544 | 13 | 221 | 1.6 | 9.7 | 0.00 | 0.00 | 0.00 | 44 | 1017.9 |
| 20260503203056 | 13 | 240 | 1.6 | 9.7 | 0.00 | 0.00 | 0.00 | 44 | 1017.9 |
| 20260503202543 | 13 | 227 | 1.6 | 8.0 | 0.00 | 0.00 | 0.00 | 45 | 1017.9 |
| 20260503202043 | 13 | 276 | 1.6 | 8.0 | 0.00 | 0.00 | 0.00 | 44 | 1017.9 |
| 20260503201553 | 13 | 278 | 1.6 | 11.3 | 0.00 | 0.00 | 0.00 | 44 | 1018.0 |
| 20260503201044 | 13 | 243 | 3.2 | 11.3 | 0.00 | 0.00 | 0.00 | 45 | 1018.0 |
| 20260503200544 | 13 | 219 | 3.2 | 11.3 | 0.00 | 0.00 | 0.00 | 45 | 1018.0 |
| 20260503200057 | 13 | 267 | 3.2 | 11.3 | 0.00 | 0.00 | 0.00 | 46 | 1018.1 |
| 20260503195548 | 13 | 287 | 1.6 | 6.4 | 0.00 | 0.00 | 0.00 | 46 | 1018.0 |
| 20260503195047 | 13 | 269 | 1.6 | 6.4 | 0.00 | 0.00 | 0.00 | 47 | 1018.1 |
| 20260503194557 | 13 | 269 | 1.6 | 6.4 | 0.00 | 0.00 | 0.00 | 47 | 1018.1 |
| 20260503194044 | 13 | 250 | 1.6 | 6.4 | 0.00 | 0.00 | 0.00 | 47 | 1018.1 |
| 20260503193543 | 13 | 0 | 1.6 | 11.3 | 0.00 | 0.00 | 0.00 | 48 | 1018.1 |
| 20260503193050 | 13 | 279 | 1.6 | 11.3 | 0.00 | 0.00 | 0.00 | 48 | 1018.1 |
| 20260503192544 | 13 | 248 | 1.6 | 11.3 | 0.00 | 0.00 | 0.00 | 48 | 1018.2 |
| 20260503192043 | 13 | 319 | 3.2 | 11.3 | 0.00 | 0.00 | 0.00 | 49 | 1018.1 |
| 20260503191553 | 13 | 221 | 1.6 | 6.4 | 0.00 | 0.00 | 0.00 | 50 | 1018.1 |
| 20260503191047 | 13 | 246 | 1.6 | 6.4 | 0.00 | 0.00 | 0.00 | 50 | 1018.1 |
| 20260503190544 | 14 | 281 | 1.6 | 6.4 | 0.00 | 0.00 | 0.00 | 50 | 1018.0 |
| 20260503190054 | 14 | 278 | 3.2 | 6.4 | 0.00 | 0.00 | 0.00 | 50 | 1018.0 |
| 20260503185545 | 14 | 281 | 0.0 | 4.8 | 0.00 | 0.00 | 0.00 | 49 | 1018.0 |
| 20260503185045 | 14 | 240 | 1.6 | 4.8 | 0.00 | 0.00 | 0.00 | 50 | 1018.0 |
| 20260503184557 | 15 | 300 | 0.0 | 8.0 | 0.00 | 0.00 | 0.00 | 50 | 1017.9 |
| 20260503184044 | 15 | 313 | 0.0 | 9.7 | 0.00 | 0.00 | 0.00 | 50 | 1017.8 |
| 20260503183544 | 15 | 0 | 1.6 | 9.7 | 0.00 | 0.00 | 0.00 | 49 | 1017.8 |
| 20260503183053 | 15 | 198 | 1.6 | 6.4 | 0.00 | 0.00 | 0.00 | 49 | 1017.8 |
| 20260503182544 | 15 | 248 | 1.6 | 6.4 | 0.00 | 0.00 | 0.00 | 48 | 1017.7 |
| 20260503182045 | 15 | 214 | 0.0 | 8.0 | 0.00 | 0.00 | 0.00 | 48 | 1017.7 |
| 20260503181553 | 15 | 254 | 1.6 | 8.0 | 0.00 | 0.00 | 0.00 | 48 | 1017.7 |
| 20260503181043 | 15 | 197 | 3.2 | 8.0 | 0.00 | 0.00 | 0.00 | 47 | 1017.6 |
| 20260503180545 | 16 | 0 | 1.6 | 4.8 | 0.00 | 0.00 | 0.00 | 47 | 1017.6 |
| 20260503180100 | 16 | 200 | 1.6 | 4.8 | 0.00 | 0.00 | 0.00 | 47 | 1017.5 |
| 20260503175546 | 16 | 263 | 1.6 | 6.4 | 0.00 | 0.00 | 0.00 | 46 | 1017.5 |
| 20260503175044 | 16 | 0 | 1.6 | 9.7 | 0.00 | 0.00 | 0.00 | 46 | 1017.5 |
| 20260503174554 | 16 | 0 | 1.6 | 11.3 | 0.00 | 0.00 | 0.00 | 45 | 1017.4 |
| 20260503174044 | 17 | 191 | 3.2 | 11.3 | 0.00 | 0.00 | 0.00 | 45 | 1017.5 |
| 20260503173545 | 17 | 197 | 3.2 | 11.3 | 0.00 | 0.00 | 0.00 | 44 | 1017.4 |
| 20260503173107 | 17 | 182 | 3.2 | 8.0 | 0.00 | 0.00 | 0.00 | 44 | 1017.5 |
| 20260503172543 | 17 | 202 | 1.6 | 9.7 | 0.00 | 0.00 | 0.00 | 43 | 1017.5 |
| 20260503172043 | 17 | 186 | 1.6 | 9.7 | 0.00 | 0.00 | 0.00 | 43 | 1017.4 |
| 20260503171555 | 18 | 199 | 1.6 | 11.3 | 0.00 | 0.00 | 0.00 | 43 | 1017.5 |
| 20260503171043 | 18 | 180 | 3.2 | 11.3 | 0.00 | 0.00 | 0.00 | 42 | 1017.4 |
| 20260503170544 | 18 | 300 | 3.2 | 12.9 | 0.00 | 0.00 | 0.00 | 42 | 1017.5 |
| 20260503150543 | 21 | 267 | 4.8 | 14.5 | 0.00 | 0.00 | 0.00 | 36 | 1017.8 |